Terminal Aerodrome Forecast
Issued by NWS Miami, FL

Home | Current Version | Previous Version | Text Only | Print | Product List | Glossary On
Versions: 1 2 3 4 5 6 7 8 9 10 11 12 13 14 15 16 17 18 19 20 21 22 23 24 25 26 27 28 29 30 31 32 33 34 35 36 37 38 39 40 41 42 43 44 45 46 47 48 49 50
000
FTUS42 KMFL 271140
TAFAPF
TAF
KAPF 271140Z 2712/2812 07006KT 1/2SM FG VV002
      TEMPO 2713/2714 1SM BR BKN001
     FM271400 10008KT 2SM BR BKN009
     FM271500 09006KT P6SM SCT025
     FM272300 VRB03KT P6SM FEW020=

USA.gov is the U.S. government's official web portal to all federal, state and local government web resources and services.